Location: Azul
(36.7830°S, 59.8500°W)
Time: 22:07:57
(UTC-03:00)

RS-44 - Pass Details

Date: 20 September 2024
Orbit: 1174 x 1511 km, 82.5° (Epoch: 11 October)

Event Time Altitude Azimuth Distance (km) Brightness Sun altitude
Rises 02:48:09 0° 184° (S) 4,433 ? -45.3°
Reaches altitude 10° 02:50:58 10° 181° (S) 3,497 ? -44.9°
Enters shadow 02:56:41 46° 158° (SSE) 1,871 ? -44.1°
